KF7HDR Weather Reports


time (UTC)temp
F
wind
direction
speed
knots
gust
knots
rain 1hr
in
rain 24hr
in
rain mn
in
humidity
%
barometer
mb
20260507062521 53 0.0 0.0 0.00 0.00 0.00 81 1023.3
20260507061519 53 0.0 0.0 0.00 0.00 0.00 82 1023.4
20260507060518 53 0.0 0.9 0.00 0.00 0.00 83 1023.4
20260507055537 53 0.0 0.0 0.00 0.00 0.00 84 1023.4
20260507054515 53 0.0 0.9 0.00 0.00 0.00 84 1023.3
20260507053614 53 0.0 0.0 0.00 0.00 0.00 84 1023.2
20260507052613 54 0.0 0.0 0.00 0.00 0.00 83 1023.3
20260507051612 54 0.0 0.0 0.00 0.00 0.00 82 1023.2
20260507050610 55 0.0 0.0 0.00 0.00 0.00 81 1023.3
20260507045609 55 0.0 0.0 0.00 0.00 0.00 81 1023.3
20260507044648 55 0.0 1.7 0.00 0.00 0.00 81 1023.3
20260507043606 56 242 0.0 1.7 0.00 0.00 0.00 80 1023.1
20260507042625 56 0.0 0.0 0.00 0.00 0.00 80 1023.0
20260507041604 56 0.0 0.9 0.00 0.00 0.00 80 1023.1
20260507040602 56 0.0 0.0 0.00 0.00 0.00 79 1022.8
20260507035601 56 0.0 0.9 0.00 0.00 0.00 79 1022.7
20260507034559 57 0.0 1.7 0.00 0.00 0.00 78 1022.7
20260507033558 57 0.0 0.0 0.00 0.00 0.00 78 1022.5
20260507032557 57 0.0 1.7 0.00 0.00 0.00 78 1022.4
20260507031556 58 0.0 1.7 0.00 0.00 0.00 77 1022.2
20260507030554 58 212 0.0 1.7 0.00 0.00 0.00 77 1022.2
20260507025553 59 0.0 2.6 0.00 0.00 0.00 76 1022.0
20260507024551 60 0.0 0.0 0.00 0.00 0.00 75 1022.0
20260507023550 60 0.0 0.0 0.00 0.00 0.00 74 1021.8
20260507022548 61 155 0.0 0.9 0.00 0.00 0.00 73 1021.9
20260507021546 62 0.0 1.7 0.00 0.00 0.00 71 1021.9
20260507020625 63 293 0.0 1.7 0.00 0.00 0.00 70 1021.7
20260507015543 63 0.0 1.7 0.00 0.00 0.00 69 1021.9
20260507014542 63 0.0 0.9 0.00 0.00 0.00 69 1021.8
20260507013540 63 0.0 0.9 0.00 0.00 0.00 68 1022.0
20260507012538 65 0.0 1.7 0.00 0.00 0.00 67 1022.1
20260507011558 66 269 0.0 1.7 0.00 0.00 0.00 65 1022.0
20260507010536 67 0.0 0.9 0.00 0.00 0.00 63 1022.0
20260507005614 69 0.0 0.9 0.00 0.00 0.00 61 1021.9
20260507004533 70 0.0 0.9 0.00 0.00 0.00 58 1022.0
20260507003532 71 178 0.9 2.6 0.00 0.00 0.00 59 1021.9
20260507002550 71 44 0.0 0.9 0.00 0.00 0.00 59 1021.8
20260507001529 68 158 0.0 1.7 0.00 0.00 0.00 63 1021.9
20260507000528 69 0.0 0.9 0.00 0.00 0.00 63 1022.0
20260506235527 70 0.0 1.7 0.00 0.00 0.00 63 1021.7
20260506234525 69 0.0 1.7 0.00 0.00 0.00 63 1021.7
20260506233524 71 0.0 0.9 0.00 0.00 0.00 62 1021.7
20260506232522 71 0.0 0.0 0.00 0.00 0.00 61 1021.7
20260506231520 70 132 0.9 1.7 0.00 0.00 0.00 60 1021.7
20260506230539 69 134 0.9 1.7 0.00 0.00 0.00 61 1021.9
20260506225518 69 162 0.9 3.5 0.00 0.00 0.00 61 1021.9
20260506224516 67 0.0 1.7 0.00 0.00 0.00 63 1022.1
20260506223635 69 0.0 0.0 0.00 0.00 0.00 64 1022.2
20260506222614 69 29 0.0 1.7 0.00 0.00 0.00 64 1022.2
20260506221632 69 110 0.0 0.9 0.00 0.00 0.00 63 1022.2
20260506220610 0 0.0 0.0 0.00 0.00 0.00 1022.3
20260506215609 69 0.0 1.7 0.00 0.00 0.00 59 1022.3
20260506214608 68 122 0.0 1.7 0.00 0.00 0.00 62 1022.2
20260506213606 67 56 0.9 1.7 0.00 0.00 0.00 63 1022.3
20260506212605 67 113 1.7 3.5 0.00 0.00 0.00 63 1022.4
20260506211604 0 0.0 0.0 0.00 0.00 0.00 1022.5
20260506210603 0 0.0 0.0 0.00 0.00 0.00 1022.6
20260506205642 0 0.0 0.0 0.00 0.00 0.00 1022.6
20260506204620 68 138 1.7 1.7 0.00 0.00 0.00 64 1022.6
20260506203559 65 135 2.6 2.6 0.00 0.00 0.00 67 1022.6
20260506202557 66 137 0.9 2.6 0.00 0.00 0.00 67 1022.6
20260506201616 65 0.0 1.7 0.00 0.00 0.00 70 1022.6
20260506200554 63 0.0 0.0 0.00 0.00 0.00 71 1022.7
20260506195553 62 0.0 0.9 0.00 0.00 0.00 73 1022.8
20260506194611 61 199 0.9 1.7 0.00 0.00 0.00 75 1022.9
20260506193550 61 0.0 0.9 0.00 0.00 0.00 76 1023.0
20260506192629 61 215 0.0 1.7 0.00 0.00 0.00 76 1023.1
20260506191547 61 45 0.0 1.7 0.00 0.00 0.00 75 1023.0
20260506190545 61 150 0.0 1.7 0.00 0.00 0.00 74 1022.9
20260506185544 61 159 0.0 1.7 0.00 0.00 0.00 76 1022.9
20260506184543 60 305 0.9 1.7 0.00 0.00 0.00 77 1022.9
20260506183541 60 0.0 0.9 0.00 0.00 0.00 77 1022.8
20260506182540 59 176 0.0 2.6 0.00 0.00 0.00 80 1022.6
20260506181539 59 334 0.0 1.7 0.00 0.00 0.00 82 1022.9
20260506180537 58 0.0 0.9 0.00 0.00 0.00 83 1022.8
20260506175536 58 0.0 0.0 0.00 0.00 0.00 83 1022.8
20260506174535 58 0.0 0.0 0.00 0.00 0.00 83 1023.0
20260506173534 58 0.0 0.0 0.00 0.00 0.00 84 1022.8
20260506172553 57 0.0 1.7 0.00 0.00 0.00 84 1022.8
20260506171531 57 0.0 1.7 0.00 0.00 0.00 85 1022.5
20260506170530 57 312 1.7 3.5 0.00 0.00 0.00 85 1022.6
20260506165529 57 94 1.7 3.5 0.00 0.00 0.00 85 1022.6
20260506164527 57 355 1.7 3.5 0.00 0.00 0.00 85 1022.7
20260506163526 57 152 2.6 5.2 0.00 0.00 0.00 84 1022.6
20260506162525 57 219 0.0 2.6 0.00 0.00 0.00 83 1022.7
20260506161524 57 282 2.6 4.3 0.00 0.00 0.00 84 1022.6
20260506160623 56 101 1.7 3.5 0.00 0.00 0.00 85 1022.3
20260506155521 56 88 1.7 4.3 0.00 0.00 0.00 85 1022.1
20260506154520 56 317 2.6 5.2 0.00 0.00 0.00 85 1022.2
20260506153518 56 15 1.7 3.5 0.00 0.00 0.00 86 1021.9
20260506152517 55 162 0.9 2.6 0.00 0.00 0.00 86 1022.2
20260506151516 55 240 0.9 2.6 0.00 0.00 0.00 86 1022.5
20260506150635 55 85 0.9 2.6 0.00 0.00 0.00 87 1022.5
20260506145614 55 227 0.9 2.6 0.00 0.00 0.00 87 1022.5
20260506144613 55 81 0.0 1.7 0.00 0.00 0.00 87 1022.3
20260506143611 56 300 1.7 3.5 0.00 0.00 0.00 86 1022.2
20260506142630 56 343 2.6 4.3 0.00 0.00 0.00 87 1022.1
20260506141629 56 284 1.7 3.5 0.00 0.00 0.00 87 1021.7
20260506140608 56 254 1.7 3.5 0.00 0.00 0.00 88 1021.6
20260506135606 55 80 1.7 2.6 0.00 0.00 0.00 88 1021.5
20260506134605 55 106 0.9 2.6 0.00 0.00 0.00 88 1021.5
20260506133604 55 317 1.7 3.5 0.00 0.00 0.00 88 1021.5
20260506132623 55 312 1.7 2.6 0.00 0.00 0.00 89 1021.4
20260506131601 55 336 0.9 3.5 0.00 0.00 0.00 88 1021.4
20260506130600 55 40 0.9 4.3 0.00 0.00 0.00 88 1021.1
20260506125559 55 126 1.7 3.5 0.00 0.00 0.00 88 1021.1
20260506124558 55 330 0.9 4.3 0.00 0.00 0.00 88 1021.1
20260506123616 55 313 1.7 4.3 0.00 0.00 0.00 88 1021.0
20260506122555 55 309 2.6 5.2 0.00 0.00 0.00 87 1021.0
20260506121554 55 273 0.0 1.7 0.00 0.00 0.00 87 1021.1
20260506120613 55 137 0.9 3.5 0.00 0.00 0.00 87 1021.0
20260506115551 56 209 0.0 1.7 0.00 0.00 0.00 87 1021.0
20260506114550 56 138 1.7 2.6 0.00 0.00 0.00 86 1020.9
20260506113548 56 332 0.9 3.5 0.00 0.00 0.00 86 1020.7
20260506112548 56 308 2.6 4.3 0.00 0.00 0.00 86 1020.7
20260506111547 56 0.0 1.7 0.00 0.00 0.00 86 1020.7
20260506110545 56 0.0 0.0 0.00 0.00 0.00 86 1020.4
20260506105544 56 0.0 0.0 0.00 0.00 0.00 86 1020.3
20260506104603 56 0.0 0.0 0.00 0.00 0.00 86 1020.2
20260506103541 56 0.0 0.0 0.00 0.00 0.00 86 1020.0
20260506102540 56 0.0 0.0 0.00 0.00 0.00 86 1019.9
20260506101539 56 0.0 0.0 0.00 0.00 0.00 85 1019.9
20260506100538 56 0.0 0.0 0.00 0.00 0.00 85 1019.8
20260506095536 57 0.0 0.0 0.00 0.00 0.00 85 1019.8
20260506094535 57 0.0 0.0 0.00 0.00 0.00 85 1019.6
20260506093534 57 0.0 0.0 0.00 0.00 0.00 85 1019.6
20260506092533 57 0.0 0.0 0.00 0.00 0.00 85 1019.6
20260506091551 57 0.0 0.0 0.00 0.00 0.00 85 1019.6
20260506090610 57 0.0 0.0 0.00 0.00 0.00 85 1019.4
20260506085529 57 0.0 0.0 0.00 0.00 0.00 84 1019.4
20260506084527 58 0.0 0.0 0.00 0.00 0.00 84 1019.5
20260506083526 58 0.0 0.0 0.00 0.00 0.00 84 1019.5
20260506082525 58 0.0 0.0 0.00 0.00 0.00 84 1019.5
20260506081523 58 0.0 0.0 0.00 0.00 0.00 84 1019.4
20260506080523 58 0.0 0.0 0.00 0.00 0.00 84 1019.5
20260506072517 58 0.0 0.0 0.00 0.00 0.00 83 1019.1
20260506071516 58 0.0 0.0 0.00 0.00 0.00 83 1019.2
20260506070614 58 0.0 0.0 0.00 0.00 0.00 83 1019.2